Home > Weather > Bloomington > Past weeks

Flag for USA Weather for the Past 2 Weeks in Bloomington, Indiana, USA

Now
60 °F

Light rain. Low clouds.


Feels Like: 60 °F
Forecast: 54 / 65 °F
Wind: 10 mph from Southeast

Location: Monroe County Airport

Current Time: Apr 30, 2016 at 5:29:55 PM

Latest Report: Apr 30, 2016 at 4:53 PM


Visibility: 7 mi

Pressure: 29.85 "Hg

Humidity: 93%

Dew Point: 58 °F

Location of BloomingtonLocation

Historic Weather in Bloomington — Graph

°F

Bloomington Temperature Yesterday

Maximum temperature yesterday: 67 °F (at 4:53 PM)
Minimum temperature yesterday: 48 °F (at 5:53 AM)
Average temperature yesterday: 59 °F

High & Low Weather Summary for the Past Weeks

 TemperatureHumidityPressure
High83 °F (Apr 18, 3:53 PM)97% (Apr 22, 4:57 AM)30.39 "Hg (Apr 22, 4:57 AM)
Low42 °F (Apr 24, 5:53 AM)16% (Apr 17, 4:53 PM)29.72 "Hg (Apr 26, 5:53 PM)
Average63 °F66%30.01 "Hg
* Reported Apr 15 3:53 PM — Apr 30 3:53 PM, Bloomington, Weather by CustomWeather, © 2016

Note: Actual official high and low records may vary slightly from our data, if they occured in-between our weather recording intervals... More about our weather records

Advertising

Bloomington Weather History for the Previous 24 Hours

Scroll right to see more
 ConditionsComfort  
Time TempWeatherWind HumidityBarometerVisibility
3:53 PM
Sat, Apr 30
59 °FLow clouds.9 mph93%29.87 "Hg9 mi
2:53 PM59 °FLight rain. Low clouds.10 mph90%29.88 "Hg8 mi
1:53 PM57 °FLight rain. Low clouds.9 mph90%29.89 "Hg7 mi
1:00 PM56 °FRain. Fog.10 mph93%29.93 "Hg2 mi
11:53 AM56 °FLight rain. Fog.8 mph90%29.93 "Hg6 mi
11:01 AM55 °FLight rain. Fog.12 mph90%29.95 "Hg4 mi
9:53 AM54 °FLight rain. Fog.9 mph93%29.98 "Hg3 mi
8:53 AM54 °FLight rain. Fog.8 mph90%29.97 "Hg4 mi
7:53 AM54 °FLight rain. Fog.8 mph90%29.95 "Hg5 mi
6:53 AM54 °FMostly cloudy.8 mph90%29.94 "Hg7 mi
5:53 AM55 °FLight rain. Fog.8 mph87%29.95 "Hg6 mi
4:53 AM56 °FLight rain. Mostly cloudy.8 mph81%29.96 "Hg10 mi
3:53 AM57 °FLight rain. Passing clouds.10 mph78%29.96 "Hg10 mi
2:53 AM58 °FPassing clouds.12 mph72%29.96 "Hg10 mi
1:53 AM59 °FPassing clouds.10 mph67%29.97 "Hg10 mi
12:53 AM60 °FOvercast.8 mph65%29.99 "Hg10 mi
11:53 PM
Fri, Apr 29
60 °FPassing clouds.7 mph65%30.03 "Hg10 mi
10:53 PM61 °FOvercast.7 mph60%30.04 "Hg10 mi
9:53 PM62 °FOvercast.7 mph60%30.05 "Hg10 mi
8:53 PM62 °FOvercast.7 mph62%30.03 "Hg10 mi
7:53 PM64 °FScattered clouds.6 mph58%30.01 "Hg10 mi
6:53 PM65 °FSunny.7 mph56%30.01 "Hg10 mi
5:53 PM66 °FSunny.5 mph54%30.01 "Hg10 mi
Weather by CustomWeather, © 2016

See weather overviewHow to use our weather pages